When you browse on this site, cookies collect data to enhance your experience and personalize the content and advertising you see.
Visit our Privacy Policy to learn more. By continuing to use the site, you agree to this use of cookies and data.
  • In Germany
  • List of Countries
  • For 7 days
  • Water Temperature
  • Satellite Maps
  • Weather Map
  • Weather Widgets
  • user-avatar
    Login

    Hourly Weather Manika

    Today, 16 January, Wednesday

    Time Temperature Precipitation Wind Pressure Humidity
    00:00 +23°C° 1 mm 1 mps 676 mmHg 94%
    01:00 +22°C° 1 mm 1 mps 676 mmHg 94%
    02:00 +22°C° 0 mm 1 mps 676 mmHg 95%
    03:00 +22°C° 0.3 mm 1 mps 676 mmHg 95%
    04:00 +22°C° 0.3 mm 1 mps 676 mmHg 95%
    05:00 +22°C° 0.3 mm 1 mps 676 mmHg 95%
    06:00 +23°C° 0 mm 1 mps 676 mmHg 90%
    07:00 +24°C° 0 mm 1 mps 677 mmHg 86%
    08:00 +26°C° 0 mm 1 mps 678 mmHg 78%
    09:00 +26°C° 0.4 mm 1 mps 678 mmHg 76%
    10:00 +27°C° 0.4 mm 1 mps 677 mmHg 74%
    11:00 +27°C° 0.4 mm 2 mps 677 mmHg 72%
    12:00 +28°C° 0.4 mm 2 mps 677 mmHg 68%
    13:00 +29°C° 0.4 mm 2 mps 677 mmHg 63%
    14:00 +30°C° 0 mm 2 mps 677 mmHg 59%
    15:00 +29°C° 0.4 mm 2 mps 677 mmHg 61%
    16:00 +29°C° 0.4 mm 2 mps 676 mmHg 63%
    17:00 +28°C° 0.4 mm 1 mps 676 mmHg 65%
    18:00 +27°C° 0.7 mm 1 mps 676 mmHg 72%
    19:00 +25°C° 0.7 mm 1 mps 676 mmHg 78%
    20:00 +22°C° 0.7 mm 0 mps 676 mmHg 84%
    21:00 +21°C° 0.4 mm 0 mps 676 mmHg 86%
    22:00 +23°C° 0.4 mm 1 mps 676 mmHg 87%
    23:00 +23°C° 0.4 mm 1 mps 676 mmHg 89%

    Tomorrow, 17 January, Thursday

    Time Temperature Precipitation Wind Pressure Humidity
    00:00 +22°C° 0 mm 1 mps 676 mmHg 90%
    01:00 +22°C° 0 mm 1 mps 676 mmHg 92%
    02:00 +22°C° 0 mm 1 mps 676 mmHg 93%
    03:00 +22°C° 0.1 mm 1 mps 676 mmHg 94%
    04:00 +22°C° 0.1 mm 1 mps 676 mmHg 95%
    05:00 +22°C° 0.1 mm 1 mps 676 mmHg 95%
    06:00 +22°C° 0.1 mm 1 mps 676 mmHg 93%
    07:00 +23°C° 0.1 mm 1 mps 676 mmHg 91%
    08:00 +23°C° 0.1 mm 1 mps 677 mmHg 88%
    09:00 +24°C° 0.1 mm 1 mps 677 mmHg 83%
    10:00 +25°C° 0.1 mm 2 mps 677 mmHg 79%
    11:00 +26°C° 0.1 mm 2 mps 677 mmHg 74%
    12:00 +27°C° 0.1 mm 2 mps 676 mmHg 72%
    13:00 +27°C° 0.1 mm 2 mps 676 mmHg 71%
    14:00 +27°C° 0.1 mm 2 mps 675 mmHg 69%
    15:00 +27°C° 0.1 mm 2 mps 675 mmHg 69%
    16:00 +27°C° 0.1 mm 2 mps 675 mmHg 69%
    17:00 +27°C° 0.1 mm 2 mps 675 mmHg 69%
    18:00 +26°C° 0.4 mm 2 mps 675 mmHg 77%
    19:00 +24°C° 0.4 mm 2 mps 675 mmHg 84%
    20:00 +23°C° 0.4 mm 1 mps 675 mmHg 91%
    21:00 +22°C° 0.1 mm 1 mps 675 mmHg 92%
    22:00 +22°C° 0.1 mm 1 mps 676 mmHg 94%
    23:00 +20°C° 0.1 mm 0 mps 676 mmHg 95%

    Day after tomorrow, 18 January, Friday

    Time Temperature Precipitation Wind Pressure Humidity
    00:00 +20°C° 0 mm 0 mps 675 mmHg 96%
    01:00 +19°C° 0 mm 0 mps 675 mmHg 97%
    02:00 +19°C° 0 mm 0 mps 674 mmHg 97%
    03:00 +20°C° 0 mm 0 mps 674 mmHg 97%
    04:00 +20°C° 0 mm 0 mps 674 mmHg 96%
    05:00 +20°C° 0 mm 0 mps 675 mmHg 95%
    06:00 +23°C° 0.1 mm 1 mps 675 mmHg 90%
    07:00 +24°C° 0.1 mm 1 mps 675 mmHg 86%
    08:00 +25°C° 0.1 mm 1 mps 676 mmHg 81%
    09:00 +26°C° 0.1 mm 2 mps 676 mmHg 75%
    10:00 +27°C° 0.1 mm 2 mps 676 mmHg 69%
    11:00 +29°C° 0.1 mm 3 mps 676 mmHg 63%
    12:00 +29°C° 0.2 mm 3 mps 676 mmHg 61%
    13:00 +30°C° 0.2 mm 3 mps 675 mmHg 59%
    14:00 +31°C° 0.2 mm 3 mps 675 mmHg 57%
    15:00 +30°C° 0.3 mm 3 mps 674 mmHg 60%
    16:00 +29°C° 0.3 mm 3 mps 674 mmHg 64%
    17:00 +28°C° 0.3 mm 3 mps 674 mmHg 67%
    18:00 +27°C° 0.5 mm 2 mps 674 mmHg 74%
    19:00 +25°C° 0.5 mm 1 mps 674 mmHg 80%
    20:00 +22°C° 0.5 mm 0 mps 675 mmHg 87%
    21:00 +21°C° 0.1 mm 0 mps 675 mmHg 88%
    22:00 +21°C° 0.1 mm 0 mps 675 mmHg 89%
    23:00 +21°C° 0.1 mm 0 mps 675 mmHg 90%

    19 January, Saturday

    Time Temperature Precipitation Wind Pressure Humidity
    00:00 +21°C° 0 mm 0 mps 675 mmHg 91%
    01:00 +20°C° 0 mm 0 mps 674 mmHg 92%
    02:00 +20°C° 0 mm 0 mps 673 mmHg 92%
    03:00 +20°C° 0 mm 0 mps 673 mmHg 93%
    04:00 +20°C° 0 mm 0 mps 673 mmHg 93%
    05:00 +20°C° 0 mm 0 mps 673 mmHg 94%
    06:00 +21°C° 0 mm 0 mps 674 mmHg 87%
    07:00 +25°C° 0 mm 1 mps 675 mmHg 79%
    08:00 +27°C° 0 mm 1 mps 676 mmHg 72%
    09:00 +29°C° 0 mm 1 mps 676 mmHg 63%
    10:00 +31°C° 0 mm 2 mps 676 mmHg 53%
    11:00 +34°C° 0 mm 2 mps 676 mmHg 44%
    12:00 +34°C° 0 mm 2 mps 676 mmHg 42%
    13:00 +35°C° 0 mm 2 mps 675 mmHg 39%
    14:00 +35°C° 0 mm 3 mps 675 mmHg 37%
    15:00 +34°C° 0.1 mm 3 mps 675 mmHg 39%
    16:00 +34°C° 0.1 mm 3 mps 675 mmHg 41%
    17:00 +32°C° 0.1 mm 2 mps 674 mmHg 44%
    18:00 +30°C° 0 mm 2 mps 675 mmHg 53%
    19:00 +27°C° 0 mm 2 mps 675 mmHg 62%
    20:00 +25°C° 0 mm 1 mps 675 mmHg 71%
    21:00 +24°C° 0 mm 1 mps 675 mmHg 74%
    22:00 +24°C° 0 mm 1 mps 676 mmHg 76%
    23:00 +24°C° 0 mm 1 mps 676 mmHg 79%

    20 January, Sunday

    Time Temperature Precipitation Wind Pressure Humidity
    00:00 +23°C° 0.4 mm 1 mps 676 mmHg 83%
    01:00 +23°C° 0.4 mm 1 mps 676 mmHg 87%
    02:00 +23°C° 0.4 mm 1 mps 676 mmHg 91%
    03:00 +22°C° 0.5 mm 1 mps 676 mmHg 92%
    04:00 +21°C° 0.5 mm 2 mps 676 mmHg 93%
    05:00 +21°C° 0.5 mm 2 mps 677 mmHg 94%
    06:00 +21°C° 0.2 mm 2 mps 677 mmHg 95%
    07:00 +21°C° 0.2 mm 2 mps 678 mmHg 95%
    08:00 +20°C° 0.2 mm 2 mps 678 mmHg 95%
    09:00 +20°C° 0.1 mm 3 mps 678 mmHg 93%
    10:00 +20°C° 0.1 mm 3 mps 678 mmHg 92%
    11:00 +20°C° 0.1 mm 3 mps 678 mmHg 90%
    12:00 +20°C° 0.4 mm 3 mps 678 mmHg 91%
    13:00 +19°C° 0.4 mm 3 mps 678 mmHg 92%
    14:00 +18°C° 0.4 mm 3 mps 677 mmHg 93%
    15:00 +18°C° 0.1 mm 3 mps 677 mmHg 93%
    16:00 +18°C° 0.1 mm 3 mps 678 mmHg 93%
    17:00 +18°C° 0.1 mm 3 mps 678 mmHg 92%
    18:00 +18°C° 0 mm 3 mps 678 mmHg 93%
    19:00 +17°C° 0 mm 2 mps 679 mmHg 93%
    20:00 +17°C° 0 mm 2 mps 679 mmHg 94%
    21:00 +17°C° 0 mm 2 mps 679 mmHg 94%
    22:00 +17°C° 0 mm 3 mps 679 mmHg 93%
    23:00 +16°C° 0 mm 3 mps 680 mmHg 93%

    21 January, Monday

    Time Temperature Precipitation Wind Pressure Humidity
    00:00 +16°C° 0.1 mm 3 mps 679 mmHg 94%
    01:00 +16°C° 0.1 mm 3 mps 678 mmHg 94%
    02:00 +16°C° 0.1 mm 3 mps 678 mmHg 94%
    03:00 +15°C° 0.3 mm 2 mps 678 mmHg 95%
    04:00 +15°C° 0.3 mm 2 mps 678 mmHg 95%
    05:00 +15°C° 0.3 mm 2 mps 678 mmHg 95%
    06:00 +15°C° 0.3 mm 2 mps 678 mmHg 95%
    07:00 +14°C° 0.3 mm 3 mps 679 mmHg 95%
    08:00 +16°C° 0.3 mm 3 mps 679 mmHg 95%
    09:00 +16°C° 0.4 mm 3 mps 679 mmHg 95%
    10:00 +16°C° 0.4 mm 3 mps 679 mmHg 95%
    11:00 +16°C° 0.4 mm 3 mps 679 mmHg 95%
    12:00 +16°C° 0.2 mm 3 mps 678 mmHg 94%
    13:00 +16°C° 0.2 mm 3 mps 678 mmHg 94%
    14:00 +16°C° 0.2 mm 3 mps 677 mmHg 94%
    15:00 +16°C° 0.1 mm 3 mps 677 mmHg 94%
    16:00 +16°C° 0.1 mm 2 mps 677 mmHg 94%
    17:00 +16°C° 0.1 mm 2 mps 677 mmHg 94%
    18:00 +16°C° 0.1 mm 2 mps 677 mmHg 95%
    19:00 +16°C° 0.1 mm 2 mps 677 mmHg 95%
    20:00 +16°C° 0.1 mm 2 mps 678 mmHg 96%
    21:00 +16°C° 0.5 mm 2 mps 678 mmHg 96%
    22:00 +16°C° 0.5 mm 2 mps 678 mmHg 96%
    23:00 +16°C° 0.5 mm 2 mps 678 mmHg 97%
    Show more